EST,Max TemperatureF,Mean TemperatureF,Min TemperatureF,Max Dew PointF,MeanDew PointF,Min DewpointF,Max Humidity, Mean Humidity, Min Humidity, Max Sea Level PressureIn, Mean Sea Level PressureIn, Min Sea Level PressureIn, Max VisibilityMiles, Mean VisibilityMiles, Min VisibilityMiles, Max Wind SpeedMPH, Mean Wind SpeedMPH, Max Gust SpeedMPH,PrecipitationIn, CloudCover, Events, WindDirDegrees
2014-1-1,32,26,20,24,20,16,92,82,72,30.29,30.18,30.06,10,8,4,13,8,16,T,3,,76
2014-1-2,21,11,1,18,11,-4,91,79,66,30.34,30.04,29.91,10,2,0,26,15,35,0.11,7,Fog-Snow,24
2014-1-3,15,4,-8,5,-2,-9,95,71,46,30.52,30.40,30.18,10,10,5,20,8,26,0.00,1,,212
2014-1-4,36,26,15,21,14,5,67,59,50,30.17,30.05,29.99,10,10,10,26,14,38,0.00,3,,203
2014-1-5,36,26,15,31,27,12,100,78,56,30.02,29.79,29.58,10,2,0,30,10,39,0.80,8,Fog-Snow,78
2014-1-6,15,1,-13,8,-16,-21,88,76,63,30.38,30.17,29.80,,,,29,19,38,T,5,Snow,267
2014-1-7,2,-6,-14,-6,-16,-19,81,76,70,30.46,30.36,30.29,,,,15,11,21,0.00,0,,238
2014-1-8,,,,,,,,,,30.47,30.36,30.29,,,,,,,0.00,,,-1
2014-1-9,32,24,19,29,26,15,92,84,75,30.48,30.35,30.23,10,4,1,8,7,,0.03,8,Snow,160
2014-1-10,45,39,32,43,37,30,100,93,85,30.23,29.98,29.66,8,4,0,16,10,25,0.19,8,Fog-Rain,179
2014-1-11,45,39,33,44,39,29,100,91,82,29.76,29.56,29.45,9,5,0,25,13,31,0.06,8,Fog-Rain,231
2014-1-12,43,37,30,31,28,25,92,76,60,30.03,29.90,29.79,10,9,6,23,13,34,0.00,5,,227
2014-1-13,48,42,35,41,36,30,89,74,58,29.80,29.70,29.63,10,10,10,21,12,31,T,3,,217
2014-1-14,42,34,25,33,26,16,92,68,43,29.90,29.81,29.71,10,8,4,28,13,38,0.01,5,Rain,255
2014-1-15,28,24,19,18,15,10,71,65,58,30.09,30.00,29.87,10,7,2,23,12,32,T,8,Snow,275
2014-1-16,30,24,17,25,19,9,92,80,67,30.01,29.75,29.65,10,4,0,25,15,35,0.02,7,Fog-Snow,202
2014-1-17,30,19,8,27,13,2,85,78,70,30.05,29.85,29.70,10,6,1,22,11,29,T,8,Snow,250
2014-1-18,24,17,10,20,13,7,92,80,68,30.02,29.89,29.75,10,4,0,21,8,25,0.09,7,Fog-Snow,185
2014-1-19,32,24,15,22,17,13,92,78,63,29.93,29.81,29.65,10,8,2,26,14,35,0.00,5,,254
2014-1-20,38,35,31,27,26,23,85,70,54,29.91,29.82,29.61,10,10,6,24,9,34,0.00,6,,283
2014-1-21,31,13,-5,27,5,-9,88,70,52,30.24,30.03,29.84,10,5,0,29,14,37,T,5,Fog-Snow,30
2014-1-22,15,4,-8,11,3,-11,90,78,66,30.24,30.04,29.94,10,4,0,30,9,39,T,7,Fog-Snow,227
2014-1-23,7,1,-5,3,-6,-12,88,77,65,30.62,30.39,30.04,10,9,2,22,13,27,T,3,Snow,272
2014-1-24,20,7,-6,14,0,-10,82,67,51,30.61,30.17,29.71,10,7,1,30,16,45,T,2,Snow,223
2014-1-25,30,18,5,26,16,-3,92,72,51,29.91,29.55,29.45,10,2,0,33,18,40,0.02,7,Fog-Rain-Snow,263
2014-1-26,42,23,4,28,11,-4,83,68,53,29.89,29.63,29.49,10,5,0,41,13,57,0.10,6,Fog-Snow,207
2014-1-27,29,10,-9,24,-6,-17,79,64,49,30.47,30.13,29.61,10,9,1,37,18,48,T,4,Snow,294
2014-1-28,6,-3,-13,-7,-13,-18,79,67,55,30.51,30.43,30.35,10,10,10,13,6,15,0.00,0,,248
2014-1-29,21,11,0,4,-2,-8,75,59,43,30.33,30.29,30.23,10,10,10,17,10,23,0.00,0,,226
2014-1-30,31,23,14,15,6,0,58,50,42,30.21,30.04,29.83,10,10,10,26,15,37,T,2,,202
2014-1-31,32,30,28,27,21,12,92,70,47,30.13,30.08,29.95,10,7,2,13,6,18,T,6,Snow,236